CAPE
29 27 35 45 55 46 53 64 75 80 91 102 107 152 194 181 168 170 127 142 173 131 139 121 93 74 5 3 5 18 0 0 340 64 125 70 53 82 24 0 0 0 0 0 0 0 0
25 36 36 45 53 35 56 69 77 74 88 102 107 151 198 240 230 208 230 208 192 189 189 158 131 66 14 2 16 19 0 0 179 48 224 140 8 53 31 8 0 0 0 0 0 0 0
21 42 31 48 45 33 59 62 52 44 64 83 104 72 172 256 181 137 197 261 274 229 264 230 157 45 18 0 68 31 0 2 190 11 45 181 19 52 20 16 0 0 0 0 0 0 0
34 30 22 49 47 42 30 43 46 66 82 132 198 195 127 184 143 53 229 282 265 254 246 234 183 92 9 0 0 0 0 5 83 70 88 300 188 75 28 0 0 1 0 0 0 0 0
26 18 32 49 34 30 58 55 53 76 102 143 177 189 136 99 23 74 203 260 290 278 188 222 155 121 7 108 25 8 1 153 104 89 320 206 210 51 9 7 4 4 0 0 0 0 0
15 18 37 32 22 60 45 40 58 54 90 123 140 148 72 2 0 68 105 228 125 137 182 195 100 34 18 42 51 10 0 20 146 217 204 133 118 111 35 18 0 0 0 0 0 0 0
21 18 34 23 25 38 41 57 46 75 111 119 148 123 130 47 24 45 102 0 33 38 118 0 0 8 48 110 26 0 11 2 189 120 50 75 93 48 9 3 0 0 0 0 0 0 0
9 14 15 19 22 38 54 45 63 56 69 78 95 64 88 125 108 42 26 0 0 36 0 0 0 0 0 4 32 8 54 70 43 48 56 48 39 19 43 32 8 0 0 0 0 0 0
6 16 16 17 19 19 39 38 57 42 30 22 47 35 20 0 21 34 13 0 0 0 23 32 33 1 0 52 42 17 38 0 32 45 49 22 29 16 44 38 24 1 0 0 0 0 0
6 11 11 14 15 12 22 34 51 27 12 8 0 0 1 0 1 10 7 0 0 0 35 33 10 33 51 55 43 32 24 2 2 6 40 19 44 1 3 37 31 17 0 0 0 0 0
6 12 11 14 12 11 12 18 38 26 8 5 0 0 0 0 0 10 11 0 0 4 23 10 7 1 16 13 9 13 28 43 6 2 4 7 36 39 26 12 27 4 0 0 0 0 0
4 14 11 12 11 11 13 12 26 21 9 7 5 0 0 0 0 2 11 0 1 13 12 6 5 18 0 9 12 28 24 4 3 15 1 4 0 1 4 0 8 0 0 0 0 0 1
4 10 10 9 12 11 8 10 13 15 14 3 4 0 0 0 0 0 0 4 12 21 1 6 18 20 4 25 11 2 26 8 12 3 5 5 6 8 0 0 0 0 1 14 9 6 2
3 10 13 9 10 11 8 6 7 9 8 4 3 0 0 0 0 0 6 4 8 12 6 3 13 16 17 13 10 8 17 8 0 0 9 25 8 5 2 3 3 0 2 4 0 0 0
3 8 12 9 9 12 13 8 6 7 9 8 0 0 0 0 0 4 3 3 8 9 13 9 9 6 7 1 6 7 2 2 0 0 9 0 8 0 1 0 1 3 6 0 0 0 0
3 7 6 10 11 9 9 10 8 7 15 1 0 0 0 0 0 1 3 19 19 1 0 0 0 0 1 0 1 5 7 0 0 0 0 0 4 0 0 0 0 0 0 0 0 0 0
6 6 7 8 9 9 7 6 9 6 7 0 0 0 0 0 0 0 3 9 4 0 0 0 0 0 0 0 0 0 0 0 0 0 0 0 0 1 0 0 0 0 0 0 0 0 0
7 8 8 9 5 8 4 4 3 5 7 0 0 0 0 0 0 0 8 1 0 0 0 0 0 0 0 0 0 0 0 0 0 0 0 0 0 9 1 0 0 0 0 0 0 0 0
6 6 7 23 5 5 5 2 2 1 5 4 0 0 0 0 0 0 0 0 0 0 0 0 0 0 0 0 0 0 0 0 0 0 0 0 0 4 3 0 0 0 0 0 0 0 0
4 4 6 14 10 3 3 3 2 0 2 0 0 1 0 0 0 0 0 0 0 0 0 0 0 0 0 0 0 0 0 0 0 0 0 0 0 0 0 0 0 0 0 0 0 0 0
2 3 7 7 16 5 2 3 1 0 0 0 1 2 1 0 0 0 0 0 0 0 0 0 0 0 0 0 0 0 0 0 0 0 0 0 0 0 0 0 0 0 0 0 0 0 0
3 3 4 7 13 10 1 5 2 0 0 0 4 2 1 0 0 0 0 0 0 0 0 0 0 0 0 0 0 0 0 0 0 0 0 0 1 0 0 0 0 0 0 0 0 0 0
2 4 4 5 6 21 2 7 7 1 0 5 0 2 6 0 0 0 0 0 0 0 0 0 0 5 9 0 0 0 0 0 0 0 0 0 0 0 0 0 0 0 0 0 0 0 0
5 3 3 2 12 34 15 1 17 12 0 18 6 8 2 0 0 0 0 0 0 0 0 0 0 9 1 0 0 0 0 0 0 0 0 1 4 0 4 0 0 0 0 0 0 0 0
4 2 15 0 2 5 46 3 15 11 0 1 0 3 13 1 0 0 0 0 0 0 0 0 0 0 0 0 9 10 11 2 1 1 0 0 9 8 3 1 0 0 0 0 0 0 0
0 5 5 5 2 3 44 36 6 8 0 0 0 0 4 3 0 0 1 0 0 0 0 0 0 0 0 4 17 15 7 1 11 5 0 0 5 15 11 1 0 0 0 0 0 2 0
12 16 0 0 3 7 14 43 54 6 1 0 0 0 0 3 0 0 1 2 1 0 0 0 0 0 0 22 23 9 12 0 2 2 20 23 21 27 18 3 0 0 0 0 20 2 0
33 10 0 0 4 13 16 22 31 52 7 0 0 0 0 0 0 0 0 0 2 1 0 0 2 2 0 32 31 25 5 0 1 0 1 4 12 20 18 15 0 0 0 8 1 0 0
34 4 5 3 11 33 24 9 3 55 61 0 1 0 0 1 0 0 0 0 0 0 0 0 3 0 0 35 1 1 0 0 0 6 0 2 0 0 0 0 0 0 0 0 0 0 0
CIN
-0 -0 -0 -0 0 0 -0 -0 -0 -0 -0 0 -0 0 0 0 0 0 -0 -1 -0 -0 -0 -0 -5 -3 -10 0 -3 -29 0 0 -1 -17 -4 -40 -18 -51 -95 -0 0 0 0 0 0 0 0
0 0 -0 0 -0 0 0 0 -0 0 0 -0 0 0 -0 0 -0 0 -0 -0 -0 -0 -0 -5 -4 -3 -3 0 -4 -32 0 0 -1 -23 0 -4 0 -60 -93 -0 0 0 0 0 0 0 0
0 -0 -0 0 0 -0 -0 -0 0 0 0 0 0 -0 0 -0 -6 -0 -0 -0 -0 0 -0 -1 -14 -9 0 0 -3 -36 0 -7 -0 -1 -34 0 -32 -52 -16 -0 -0 0 0 0 0 0 0
0 -0 -0 -0 -0 -0 0 -0 -0 -0 -0 -0 -0 0 0 -0 -0 -24 0 0 -0 -0 -0 -0 -2 -4 0 0 0 0 -2 -26 -8 -3 -0 -0 -1 -3 -36 0 0 0 0 0 0 0 0
-0 -0 -0 0 0 0 -0 -0 0 -0 0 0 0 0 -1 -1 -45 -23 -2 -0 0 -0 -0 -0 -0 -0 0 -3 -14 -21 -25 -11 -10 -1 -0 -6 -3 -0 -5 0 0 0 0 0 0 0 0
0 -0 -0 -0 0 0 0 0 0 -0 -0 -0 -0 -0 -10 -0 0 -10 -5 -1 -23 -6 -0 0 -1 -1 -2 -0 -10 -30 0 -22 0 -0 0 -6 -2 0 0 0 0 0 0 0 0 0 0
0 0 -0 0 0 0 0 0 0 0 -0 0 0 0 0 -4 -2 -6 -5 -0 -14 -0 -0 0 0 -22 -5 -6 -23 -12 -23 -3 -14 -1 0 -0 -0 0 0 -0 0 0 0 0 0 0 0
0 0 0 0 0 0 0 0 0 0 0 0 0 -1 -2 -7 -6 -0 -16 -0 0 -19 0 0 0 0 0 -1 0 -14 -34 -0 -1 0 -1 0 0 0 -0 -0 -1 0 0 0 0 0 0
0 -0 0 -0 0 0 -0 -0 0 -0 -0 -1 0 -0 -0 0 -8 -1 -2 0 0 0 0 0 -0 0 -1 -6 -0 -1 -2 0 -0 -0 0 -0 -0 -0 0 -0 0 0 0 0 0 0 0
0 0 0 0 -0 0 0 -0 0 0 -0 0 0 0 0 0 -0 -3 -1 -0 0 0 0 0 0 -0 -5 -10 -1 -2 -1 -0 0 -0 -1 -1 -4 0 0 0 -0 0 0 0 0 0 0
0 0 0 0 0 0 0 -0 0 0 0 -0 0 0 0 0 0 0 0 0 0 -0 -5 0 -0 -7 -2 -0 -4 -7 -3 0 0 0 0 0 -1 0 0 0 -0 -3 0 0 0 0 0
-0 -0 0 0 -0 0 -0 0 0 0 0 -0 0 0 0 0 0 0 0 0 0 0 0 0 -1 0 -0 -4 -1 -4 -1 -8 -1 0 -1 0 0 0 -7 0 -6 0 0 0 0 0 0
0 0 0 0 0 0 0 0 0 -0 -0 0 0 0 0 0 0 0 -7 0 0 0 0 0 0 0 -0 0 -2 -2 -0 -1 0 0 0 0 0 -0 0 0 0 0 0 -0 0 0 0
-0 -0 0 -0 -0 0 0 0 0 0 0 -0 0 0 0 0 0 0 0 0 0 -5 -0 -2 0 0 -0 0 0 -0 0 -1 0 0 -1 0 0 0 -1 -0 0 0 0 -0 0 0 0
-0 -0 -0 -0 -0 0 0 0 0 0 0 0 0 0 0 0 0 0 0 0 0 -0 -0 -0 0 0 0 0 -0 -1 -0 0 0 0 -4 0 0 0 0 0 -0 0 0 0 0 0 0
-0 -0 -0 0 0 0 -0 0 0 0 0 -0 0 0 0 0 0 0 -0 0 -0 -8 0 0 0 0 0 0 0 0 0 0 0 0 0 0 0 0 0 0 0 0 0 0 0 0 0
0 -0 -0 0 0 -0 0 0 0 0 0 0 0 0 0 0 0 0 0 0 -6 0 0 0 0 0 0 0 0 0 0 0 0 0 0 0 0 0 0 -0 0 0 0 0 0 0 0
0 0 0 -0 -0 -0 0 0 0 0 0 0 0 0 0 0 0 0 -15 0 0 0 0 0 0 0 0 0 0 0 0 0 0 0 0 0 0 0 0 0 0 0 0 0 0 0 0
-0 0 0 -0 -0 -0 -0 0 0 0 0 0 0 0 0 0 0 0 0 0 0 0 0 0 0 0 0 0 0 0 0 0 0 0 0 0 0 0 0 0 0 0 0 0 0 0 0
-0 -0 -0 -0 -0 -0 0 0 0 0 0 0 0 -19 0 0 0 0 0 0 0 0 0 0 0 0 0 0 0 0 0 0 0 0 0 0 0 0 0 0 0 -0 0 0 0 0 0
0 -0 -0 -0 -0 0 0 0 0 0 0 0 0 0 0 0 0 0 0 0 0 0 0 0 0 0 0 0 0 0 0 0 0 0 0 0 0 0 0 0 0 0 0 0 0 0 0
-0 -0 0 0 0 -0 0 -0 -0 0 0 0 0 -0 -0 0 0 0 0 0 0 0 0 0 0 0 0 0 0 0 0 0 0 0 0 0 -0 0 0 0 0 0 0 0 0 0 0
-0 -0 -0 0 0 0 -0 -0 0 -0 0 0 -1 -0 -0 0 0 0 0 0 0 0 0 0 0 -7 -7 -11 0 0 0 0 0 0 0 -0 0 0 0 0 0 0 0 0 0 0 0
-1 -0 -0 -0 -0 -0 -0 -0 -0 -1 0 -1 -1 -0 0 0 0 0 0 0 0 0 0 0 0 -6 -6 0 0 0 0 0 0 0 0 -4 -22 0 0 0 0 0 0 0 0 0 0
-1 -0 -0 -2 -2 -0 -0 -7 0 -0 0 -1 0 -0 0 0 0 0 0 0 0 0 0 0 0 -8 0 0 -8 -5 -5 -5 -22 -39 0 -9 -6 0 0 -0 0 0 0 0 0 0 0
0 -1 -1 -3 -6 -4 -0 -0 -0 -0 0 0 0 0 0 0 0 0 0 0 0 0 0 0 0 0 0 -40 -7 -0 0 -0 0 -5 -1 0 -1 0 0 -0 0 0 0 0 0 0 0
-0 -2 -5 0 -6 -6 -1 -0 0 -1 -1 0 0 0 0 0 0 0 0 0 0 0 0 0 0 0 0 -7 -0 -0 0 0 -0 -0 0 0 0 0 0 -0 0 0 0 0 0 -0 0
-0 -2 -1 -0 -0 -0 -0 0 -0 -0 -0 0 0 0 0 0 0 0 0 0 0 -0 0 0 0 0 0 -0 0 0 0 0 0 0 0 0 0 0 0 0 0 0 0 -0 0 0 0
-1 -4 -2 -3 -1 0 -0 -0 -0 0 -0 -2 -3 0 0 -0 0 0 0 0 0 0 0 0 -0 0 0 0 -0 -0 0 0 0 0 0 0 0 0 0 0 0 0 0 0 0 0 0
Wind_Speed
19 19 20 21 21 23 23 23 22 22 23 22 19 18 17 14 12 11 10 10 10 8 8 6 5 7 3 7 10 8 3 1 21 19 19 18 21 17 17 13 11 14 6 8 5 8 6
19 19 20 22 22 23 23 24 22 22 22 21 19 18 16 14 12 11 10 10 9 8 7 6 5 7 6 11 5 2 3 3 19 22 20 18 17 13 13 11 15 13 4 13 9 7 5
19 19 21 21 22 23 23 23 23 22 22 23 20 15 16 14 10 11 9 9 9 7 8 6 3 6 9 12 5 1 4 3 16 20 21 16 12 14 10 7 7 7 15 7 10 10 8
19 20 20 22 23 24 23 22 23 23 23 23 22 18 15 13 11 9 7 10 8 8 9 5 3 4 7 11 16 9 5 7 14 17 19 12 14 12 8 5 10 11 7 12 12 14 6
18 20 21 21 23 23 23 24 24 25 25 24 23 19 11 12 8 7 6 9 9 10 6 4 4 6 5 9 6 13 5 5 16 20 15 11 18 14 7 13 9 15 11 17 5 9 11
19 20 20 21 23 24 25 23 25 25 25 25 23 19 9 6 5 3 3 9 5 4 4 4 2 4 6 11 7 8 8 5 19 19 14 14 10 13 13 15 15 17 17 13 14 5 9
18 20 21 23 22 23 23 24 25 26 27 26 26 26 12 3 5 3 2 1 3 4 3 4 3 3 6 5 4 6 7 1 16 16 10 17 8 16 21 18 3 10 16 10 9 5 5
18 20 21 22 21 22 24 25 26 26 25 24 23 24 18 1 6 6 2 1 3 4 3 4 6 7 10 7 5 6 4 9 9 19 13 10 16 14 12 12 9 14 14 10 5 4 5
16 18 20 22 23 23 24 24 25 24 23 23 23 20 16 16 11 6 2 5 4 4 3 4 3 5 5 5 7 6 4 4 18 18 19 14 11 14 15 12 11 9 11 9 3 5 1
16 18 19 21 22 22 22 23 24 22 21 21 21 18 16 2 6 2 4 5 3 3 3 4 1 2 2 3 6 4 6 3 6 6 10 8 1 17 18 15 13 9 4 7 5 5 4
17 18 20 21 21 23 24 23 23 22 20 20 18 16 11 13 3 5 4 3 2 3 3 9 4 2 6 4 9 6 5 4 9 6 4 3 7 18 18 19 13 4 7 8 3 2 3
15 17 18 20 21 23 24 24 23 22 20 19 19 12 7 4 4 2 1 3 3 4 9 4 6 6 5 3 3 6 4 10 6 9 11 4 4 4 4 10 6 15 10 7 3 1 4
14 17 18 19 21 22 24 25 24 23 22 19 17 12 3 1 1 2 2 2 3 7 3 7 4 5 6 5 7 5 4 5 4 4 3 3 3 3 3 10 6 6 11 4 4 4 2
13 15 17 19 21 22 24 25 26 25 24 21 15 7 1 0 2 2 1 3 10 6 5 2 4 12 5 4 5 3 7 4 4 3 4 4 4 4 2 2 5 5 3 2 5 5 4
12 15 17 19 21 22 24 25 27 27 26 22 6 1 2 2 3 3 2 7 3 2 2 6 8 7 4 6 5 4 3 3 2 2 3 5 4 3 6 6 4 5 4 2 4 1 3
11 14 16 18 20 22 24 25 27 28 26 17 2 1 1 3 5 3 1 6 1 1 2 2 2 1 4 3 3 4 4 1 3 1 3 3 6 2 4 1 8 1 8 3 0 5 5
12 13 16 17 20 21 24 26 27 28 28 10 2 1 2 2 4 3 5 4 3 2 3 3 2 2 4 3 2 2 2 2 1 2 2 5 3 3 4 3 6 4 3 2 2 2 3
12 13 16 16 19 21 23 25 27 28 28 5 3 1 3 5 3 2 3 2 3 3 2 2 3 3 3 2 3 2 3 1 1 2 3 2 5 4 2 2 3 2 3 5 4 5 1
10 13 15 17 17 20 22 24 26 27 22 5 4 3 1 3 3 2 1 1 2 2 3 1 2 1 1 3 2 2 2 2 2 1 5 6 3 5 2 2 1 5 6 4 5 2 5
9 12 14 17 16 20 22 24 25 27 22 2 2 1 2 4 2 1 2 1 1 2 1 1 3 2 4 2 3 4 4 2 0 1 5 2 3 1 3 3 4 5 9 9 5 4 5
8 12 14 15 16 18 20 22 25 27 21 2 3 3 2 1 3 3 0 0 1 1 0 0 2 1 3 3 3 4 3 3 2 3 2 1 2 1 1 1 3 3 7 13 10 9 6
8 11 13 16 16 17 19 20 23 26 19 3 3 3 2 1 1 1 1 2 0 1 2 1 2 5 3 2 2 6 6 4 3 4 3 1 3 1 2 1 6 8 11 12 16 15 15
8 10 12 15 15 14 16 17 20 22 15 3 2 2 2 1 3 4 3 2 1 1 1 2 3 3 3 1 1 2 3 4 4 7 6 5 6 2 1 0 4 8 18 19 11 10 15
5 9 11 13 13 15 13 15 16 15 13 3 3 2 2 1 4 1 1 1 1 1 2 0 1 0 5 6 8 7 7 7 6 3 5 6 5 2 1 3 5 3 3 5 18 11 16
6 9 10 11 12 13 12 12 13 13 12 3 3 2 2 4 3 4 2 3 4 1 2 1 1 2 6 2 3 4 2 2 3 3 4 4 4 2 2 4 9 4 5 6 6 6 17
7 8 9 10 11 12 14 12 11 10 9 2 2 2 2 3 0 1 3 2 2 3 3 2 2 2 1 1 2 4 5 3 5 3 3 4 4 4 3 3 5 3 5 5 4 4 5
7 6 6 8 11 11 12 14 13 9 3 1 1 3 1 2 2 3 3 3 2 2 1 1 3 3 0 3 4 5 5 1 6 6 6 5 3 9 7 5 6 4 6 4 4 4 1
7 4 5 6 8 11 11 13 14 13 4 1 1 1 2 3 7 4 3 4 3 3 2 3 3 3 3 6 5 4 5 6 4 5 7 9 7 5 7 5 8 6 5 5 5 3 2
6 3 5 5 8 12 12 12 10 13 16 4 2 1 1 3 5 4 7 11 8 6 2 3 4 2 3 5 3 2 3 4 5 5 3 8 7 4 8 4 2 7 2 3 3 1 3
Wind_Direction
346 350 344 345 349 341 332 335 332 331 329 328 323 321 315 311 309 312 311 317 312 309 299 289 265 270 235 211 234 141 44 217 206 198 195 187 191 191 194 193 187 219 194 202 190 173 163
346 348 346 349 347 335 340 339 339 339 332 329 328 322 314 306 298 297 298 299 291 295 292 274 261 264 222 236 231 205 226 6 187 191 197 194 198 185 200 194 195 197 189 204 195 193 172
351 348 352 345 348 337 340 344 341 334 330 327 325 318 310 307 298 298 301 299 299 312 306 296 233 253 239 233 150 64 221 179 184 192 194 194 196 184 164 168 174 175 207 201 209 222 227
349 349 353 349 346 340 350 343 336 337 330 324 318 311 306 302 295 299 297 292 282 297 307 266 247 221 253 245 240 257 239 200 191 198 200 188 190 176 177 149 166 181 190 199 218 209 199
348 348 353 346 348 344 343 347 344 338 337 337 335 320 306 280 290 293 302 313 301 283 268 217 217 223 243 142 190 205 203 188 179 182 203 182 180 191 150 164 157 192 201 211 190 205 212
350 349 350 349 349 345 356 343 338 338 342 349 345 345 272 271 290 282 287 331 12 137 157 171 218 221 234 188 169 173 156 108 166 167 182 198 181 176 180 186 198 188 204 209 215 166 218
349 351 347 355 351 353 343 344 346 346 353 354 360 1 340 217 265 153 316 170 181 127 200 240 194 278 85 104 157 163 116 272 173 167 171 196 183 188 185 198 249 169 194 197 217 133 225
348 349 354 355 356 350 345 351 349 353 353 359 2 12 7 152 220 129 132 41 25 5 213 247 281 272 274 274 126 147 130 172 163 169 167 171 211 192 170 176 179 178 179 190 127 159 238
350 349 354 352 357 354 349 351 350 354 353 1 6 13 37 65 70 101 70 45 355 300 240 73 54 262 276 200 132 130 82 10 173 173 177 176 182 163 174 174 160 179 183 164 144 160 168
347 349 354 355 358 353 350 352 351 353 354 355 8 22 26 5 51 54 58 329 289 299 228 94 269 150 181 185 70 43 87 106 44 135 169 155 149 175 181 187 180 166 123 130 133 213 232
346 350 352 354 358 353 349 354 353 350 351 350 356 13 43 34 94 64 4 313 294 268 78 3 346 344 79 52 123 36 82 179 126 135 174 90 184 178 184 188 198 116 146 111 97 123 287
344 346 353 353 357 354 349 351 353 349 350 348 343 351 4 61 66 51 306 303 262 248 39 37 335 113 78 24 77 136 173 66 75 86 68 56 42 29 74 72 179 139 110 80 94 228 229
343 345 351 353 357 354 351 347 349 351 347 345 335 325 11 291 78 214 295 237 243 39 303 14 59 115 94 80 60 46 117 81 121 127 107 57 35 91 79 76 18 194 157 140 186 202 260
343 345 349 355 356 356 352 349 345 347 347 340 327 311 130 124 195 229 275 228 55 29 70 178 98 92 55 47 46 14 119 72 60 97 115 85 97 11 33 127 155 142 196 239 190 187 141
342 347 350 357 356 356 353 351 346 344 345 341 336 133 226 177 257 209 245 48 43 2 73 139 125 86 91 78 110 96 47 94 75 346 81 124 88 125 202 155 179 154 202 40 100 95 246
344 345 352 359 359 354 353 353 349 344 343 349 341 280 184 323 179 202 33 88 66 316 11 343 67 354 147 112 148 140 170 111 116 359 292 129 114 98 156 156 55 290 130 145 236 179 223
349 346 352 358 357 355 354 353 352 348 344 342 305 197 123 149 197 62 59 41 23 7 347 3 88 106 101 119 87 99 93 120 188 91 95 127 91 128 187 205 168 143 178 76 102 302 276
348 347 349 355 354 356 355 354 353 353 347 26 318 57 116 174 56 46 46 323 339 344 349 97 102 97 130 130 123 118 120 79 127 156 104 61 107 139 116 36 323 293 231 214 236 177 79
352 349 346 348 356 355 356 356 355 354 358 323 352 306 44 267 100 93 132 187 244 339 14 46 105 11 152 134 131 78 102 29 160 143 156 169 119 118 133 218 175 224 195 215 103 55 197
357 356 349 348 354 356 356 357 355 353 354 318 311 293 19 56 37 75 135 62 172 169 16 50 110 145 144 118 35 138 137 52 354 41 71 109 127 258 190 88 122 197 199 198 182 189 174
3 -0 353 347 356 356 356 357 355 354 352 298 1 47 349 79 87 101 221 161 294 183 77 116 131 188 150 136 134 144 143 127 98 135 71 23 110 117 220 145 186 214 200 197 208 208 213
359 357 357 352 350 353 356 357 356 359 349 69 8 355 334 93 128 182 175 153 290 147 280 137 175 161 190 171 213 179 166 193 174 160 168 138 132 144 209 163 230 247 234 220 222 229 246
350 353 350 356 347 354 355 358 358 10 359 49 6 297 310 73 185 205 157 152 160 239 177 261 172 210 168 94 217 301 173 169 166 170 168 158 144 171 222 307 278 253 227 211 207 209 219
348 339 342 347 348 349 351 356 357 12 22 346 12 299 306 246 263 207 161 265 198 356 311 166 290 259 119 115 113 102 94 106 137 117 172 155 128 130 312 270 232 54 144 201 217 220 217
286 323 341 354 354 346 351 355 1 7 18 36 349 345 339 284 293 265 266 272 287 241 185 263 32 29 156 154 126 140 129 161 97 68 184 181 150 150 255 252 298 262 182 167 186 208 215
297 314 345 352 347 350 354 348 353 2 5 41 13 314 329 305 213 343 278 278 252 205 187 178 95 42 286 141 164 212 205 185 182 165 51 152 241 210 164 257 253 52 137 183 223 151 164
286 309 337 345 348 339 344 351 339 340 16 32 339 3 302 290 272 251 246 258 259 274 272 161 159 164 63 198 203 207 217 228 189 196 171 169 187 219 222 261 282 211 154 148 199 118 214
276 295 322 334 336 346 342 350 358 330 343 287 339 347 346 296 277 241 261 254 283 247 239 87 167 188 156 204 221 187 221 198 207 188 181 184 187 190 211 220 253 146 136 213 106 128 240
232 263 312 294 313 323 328 332 333 340 325 157 273 183 177 236 274 218 250 266 248 263 311 280 334 279 204 203 211 194 180 180 187 208 187 204 209 190 214 221 48 194 282 122 101 262 213